Content
SEND FEEDBACK

Daily
Averages
Monthly
Summary
United States of America

ST. LOUIS, MISSOURI


Home > North America > United States > Missouri
Elevation: 535 feet     Latitude: 38 45N     Longitude: 090 22W

WEATHER
 
SELECT A DAY
Number of Records: 199,662;   Date Range: 1/1/95 - 10/21/14
 
SHARE

PRINT THIS DATA

[ ← Previous Day ]
WEATHER ALMANAC - MAY 1, 2013
[ Next Day → ]
[ °C ]   °F
Weather ElementAverageHighLow
Temperature70.4 °F82 °F (12:54 pm)52 °F (5:54 am)
Dewpoint54.1 °F57.9 °F (8:54 am)50 °F (3:54 am)
Humidity60.5 %93 % (5:54 am)35 % (11:54 am)
Barometer30.01 in30.06 in (9:54 pm)29.94 in (1:54 am)
Wind Speed4.8 mph12.7 mph (2:54 pm)
Wind Gust18.4 mph (2:54 pm)
Weather ElementAverage
Visibility10 mi
Wind DirectionENE (77 °)

Weather ElementTotal
Precipitation---
Cooling Degree Days2 (Base 65)
Growing Degree Days17 (Base 50)
Averaged from 23 records on May 1, 2013
WEATHER CONDITIONS BREAKOUT
WIND DIRECTION BREAKOUT
WEATHER BY HOUR - MAY 1, 2013
[ °C ]   °F
Local TimeTemperatureDewpointHumidityBarometerVisibilityWind DirectionWind SpeedGust SpeedPrecipitationEventsConditions
1:54 AM60.1 °F53.1 °F78 %29.94 in10.0 miSE (140°)3.5 mphClear
2:54 AM57.9 °F53.1 °F84 %29.94 in10.0 miSouth (170°)3.5 mphClear
3:54 AM54.0 °F50.0 °F86 %29.96 in10.0 miCalmClear
4:54 AM54.0 °F51.1 °F90 %29.98 in10.0 miCalmClear
5:54 AM52.0 °F50.0 °F93 %30.00 in10.0 miCalmClear
6:54 AM54.0 °F52.0 °F93 %30.02 in10.0 miCalmClear
7:54 AM61.0 °F55.9 °F83 %30.03 in10.0 miCalmClear
8:54 AM70.0 °F57.9 °F65 %30.03 in10.0 miCalmPartly Cloudy
9:54 AM77.0 °F52.0 °F42 %30.03 in10.0 miVariable5.8 mphPartly Cloudy
10:54 AM78.1 °F52.0 °F40 %30.03 in10.0 miSE (130°)8.1 mphScattered Clouds
11:54 AM81.0 °F51.1 °F35 %30.03 in10.0 miSouth (190°)8.1 mphPartly Cloudy
12:54 PM82.0 °F52.0 °F35 %30.02 in10.0 miSSE (150°)11.5 mph17.3 mphScattered Clouds
1:54 PM81.0 °F54.0 °F39 %30.03 in10.0 miEast (90°)11.5 mphMostly Cloudy
2:54 PM82.0 °F55.0 °F39 %30.02 in10.0 miESE (110°)12.7 mph18.4 mphMostly Cloudy
3:54 PM82.0 °F55.0 °F39 %30.02 in10.0 miSouth (170°)8.1 mphMostly Cloudy
4:54 PM82.0 °F55.0 °F39 %30.01 in10.0 miVariable6.9 mphMostly Cloudy
5:54 PM81.0 °F55.9 °F42 %30.01 in10.0 miESE (120°)8.1 mphMostly Cloudy
6:54 PM80.1 °F57.0 °F45 %30.01 in10.0 miSE (140°)8.1 mphScattered Clouds
7:54 PM78.1 °F55.0 °F45 %30.02 in10.0 miESE (120°)6.9 mphMostly Cloudy
8:54 PM75.0 °F55.0 °F50 %30.04 in10.0 miSE (140°)4.6 mphClear
9:54 PM70.0 °F57.0 °F63 %30.06 in10.0 miCalmClear
10:54 PM64.0 °F57.9 °F80 %30.05 in10.0 miEast (100°)3.5 mphClear
11:54 PM62.1 °F57.9 °F86 %30.06 in10.0 miCalmClear
Hourly data recorded from KSUS, located miles away from St. Louis, Missouri







STORIES FROM OUR PARTNERS